This is the latest recevied weather packets stored in our database for station/object N6OIM. If no packets are shown the sender has not sent any weather packets the latest 10 day(s).
| Time | Temp. | Humidity | Pressure | Rain* | Wind** | Luminosity | Snow |
|---|---|---|---|---|---|---|---|
| 1777580011 | 26.11° C | 43% | 1011 hPa | 0 mm | - | - | - |
| 1777579703 | 26.11° C | 44% | 1011 hPa | 0 mm | - | - | - |
| 1777579411 | 25.56° C | 43% | 1011 hPa | 0 mm | - | - | - |
| 1777579101 | 25.56° C | 43% | 1011.1 hPa | 0 mm | - | - | - |
| 1777578810 | 25.56° C | 42% | 1011.2 hPa | 0 mm | - | - | - |
| 1777578499 | 25.56° C | 44% | 1011.2 hPa | 0 mm | - | - | - |
| 1777578208 | 25.56° C | 46% | 1011.5 hPa | 0 mm | - | - | - |
| 1777577897 | 25.56° C | 46% | 1011.5 hPa | 0 mm | - | - | - |
| 1777577609 | 25° C | 45% | 1011.4 hPa | 0 mm | - | - | - |
| 1777577299 | 25° C | 45% | 1011.6 hPa | 0 mm | - | - | - |
| 1777577012 | 25° C | 47% | 1011.6 hPa | 0 mm | - | - | - |
| 1777576699 | 25° C | 46% | 1011.7 hPa | 0 mm | - | - | - |
| 1777576407 | 24.44° C | 47% | 1011.8 hPa | 0 mm | - | - | - |
| 1777576116 | 24.44° C | 48% | 1011.8 hPa | 0 mm | - | - | - |
| 1777575803 | 24.44° C | 47% | 1011.9 hPa | 0 mm | - | - | - |
| 1777575511 | 23.89° C | 48% | 1012 hPa | 0 mm | - | - | - |
| 1777575198 | 23.89° C | 50% | 1012 hPa | 0 mm | - | - | - |
| 1777574599 | 23.89° C | 49% | 1012.1 hPa | 0 mm | - | - | - |
| 1777574312 | 23.33° C | 49% | 1012.2 hPa | 0 mm | - | - | - |
| 1777574001 | 23.33° C | 49% | 1012.2 hPa | 0 mm | - | - | - |
| 1777573709 | 23.33° C | 53% | 1012.3 hPa | 0 mm | - | - | - |
| 1777573397 | 23.33° C | 51% | 1012.3 hPa | 0 mm | - | - | - |
| 1777573106 | 22.78° C | 51% | 1012.3 hPa | 0 mm | - | - | - |
| 1777572815 | 22.78° C | 52% | 1012.3 hPa | 0 mm | - | - | - |
| 1777572504 | 22.78° C | 52% | 1012.3 hPa | 0 mm | - | - | - |
* Rain latest hour (hover to see other rain measurements)
** Current wind speed in m/s (hover to see current wind gust speed)